Regional Weather Roundup
Issued by NWS Little Rock, AR

Home | Current Version | Previous Version | Text Only | Print | Product List | Glossary Off
Versions: 1 2 3 4 5 6 7 8 9 10 11 12 13 14 15 16 17 18 19 20 21 22 23 24 25 26 27 28 29 30 31 32

000
ASUS44 KLZK 240505
RWRLZK

WEATHER ROUNDUP FOR ARKANSAS
NATIONAL WEATHER SERVICE LITTLE ROCK AR
1200 AM CDT MON APR 24 2017

NOTE: "FAIR" INDICATES FEW OR NO CLOUDS BELOW 12,000 FEET WITH NO
SIGNIFICANT WEATHER AND/OR OBSTRUCTIONS TO VISIBILITY.

ARZ001-003-010-029-240600-
NORTHWEST ARKANSAS

CITY           SKY/WX    TMP DP  RH WIND       PRES   REMARKS
FAYETTEVILLE   CLEAR     42  42 100 CALM      29.98S
FORT SMITH     CLEAR     52  44  74 CALM      29.94F
HARRISON       CLEAR     48  38  68 CALM      29.97F
BENTONVILLE    CLEAR     46  41  81 CALM      29.99R
ROGERS         CLEAR     43  41  93 NW6       29.99R
SILOAM SPGS    CLEAR     45  37  76 CALM      29.99R
HIGHFILL       CLEAR     45  40  82 NW3       29.98R
$$

ARZ004-005-016-240600-
NORTH CENTRAL ARKANSAS

CITY           SKY/WX    TMP DP  RH WIND       PRES   REMARKS
BATESVILLE     CLEAR    N/A N/A N/A CALM      29.96F
FLIPPIN        CLEAR     48  37  66 CALM      29.95F
$$

ARZ040-041-240600-
WEST CENTRAL ARKANSAS

CITY           SKY/WX    TMP DP  RH WIND       PRES   REMARKS
MENA           CLEAR     46  46 100 CALM      29.97F
MOUNT IDA      CLEAR     47  44  90 CALM      29.94F
$$

ARZ009-017-025-026-028-240600-
NORTHEAST ARKANSAS

CITY           SKY/WX    TMP DP  RH WIND       PRES   REMARKS
CORNING        FAIR      55  39  54 NW6       29.94F
JONESBORO      CLEAR     55  41  59 NW7       29.93F
NEWPORT        CLEAR     51  46  83 NW8       29.94F
WALNUT RIDGE   CLEAR     52  37  58 NW7       29.94F
BLYTHEVILLE    CLEAR     51  46  83 NE10      29.93R
$$

ARZ022-023-033-042-044-240600-
CENTRAL ARKANSAS

CITY           SKY/WX    TMP DP  RH WIND       PRES   REMARKS
LITTLE ROCK    CLEAR     55  45  68 CALM      29.96F
N LITTLE ROCK    N/A     55  41  59 CALM      29.96F
JACKSONVILLE   CLEAR     49  45  86 CALM      29.95F
CONWAY           N/A     50  46  87 CALM      29.93F
SEARCY         CLEAR     47  46  97 W5        29.97F
HOT SPRINGS    CLEAR     52  48  86 W5        29.96F
RUSSELLVILLE   CLEAR     48  43  82 CALM      29.95F
$$

ARZ036-240600-
EAST ARKANSAS

CITY           SKY/WX    TMP DP  RH WIND       PRES   REMARKS
WEST MEMPHIS   CLEAR     53  49  86 NW3       29.91F
$$

ARZ050-053-066-070-073-240600-
SOUTHWEST ARKANSAS

CITY           SKY/WX    TMP DP  RH WIND       PRES   REMARKS
ARKADELPHIA    FAIR      52  51  97 CALM      29.96F
CAMDEN         CLEAR     48  46  93 CALM      29.95F
TEXARKANA      CLEAR     50  46  86 CALM      29.98F
EL DORADO      CLEAR     50  48  93 CALM      29.96F
DE QUEEN       CLEAR     49  48  97 CALM      29.96F
$$

ARZ056-057-069-240600-
SOUTHEAST ARKANSAS

CITY           SKY/WX    TMP DP  RH WIND       PRES   REMARKS
PINE BLUFF     CLEAR     51  50  96 CALM      29.96F
STUTTGART      CLEAR     54  43  66 W6        29.96S
MONTICELLO     PTCLDY    49  46  90 CALM      29.96F

$$






USA.gov is the U.S. government's official web portal to all federal, state and local government web resources and services.